Time,TemperatureF,DewpointF,PressureIn,WindDirection,WindDirectionDegrees,WindSpeedMPH,WindSpeedGustMPH,Humidity,HourlyPrecipIn,Conditions,Clouds,dailyrainin,SoftwareType,DateUTC
2013-02-18 00:00:00,62.3,52.8,30.02,SSE,159,6.0,9.0,71,0.00,,OVC055,0.00,VWS V14.01,2013-02-18 06:00:00,
2013-02-18 00:05:00,62.3,52.8,30.02,South,178,0.0,13.0,71,0.00,,OVC055,0.00,VWS V14.01,2013-02-18 06:05:00,
2013-02-18 00:10:00,62.3,52.8,30.01,SSE,167,7.0,12.0,71,0.00,,OVC055,0.00,VWS V14.01,2013-02-18 06:10:00,
2013-02-18 00:15:00,62.3,52.8,30.01,SSE,161,0.0,12.0,71,0.00,,OVC055,0.00,VWS V14.01,2013-02-18 06:15:00,
2013-02-18 00:20:00,62.3,52.8,30.00,South,186,6.0,10.0,71,0.00,,OVC055,0.00,VWS V14.01,2013-02-18 06:20:00,
2013-02-18 00:25:00,62.3,53.2,30.00,South,191,15.0,15.0,72,0.00,,OVC047,0.00,VWS V14.01,2013-02-18 06:25:00,
2013-02-18 00:30:00,62.3,53.2,30.00,South,184,2.0,16.0,72,0.00,,OVC047,0.00,VWS V14.01,2013-02-18 06:30:00,
2013-02-18 00:35:00,62.3,53.2,30.00,SE,138,9.0,16.0,72,0.00,,OVC047,0.00,VWS V14.01,2013-02-18 06:35:00,
2013-02-18 00:40:00,62.3,53.2,30.00,SE,146,2.0,11.0,72,0.00,,OVC047,0.00,VWS V14.01,2013-02-18 06:40:00,
2013-02-18 00:45:00,62.3,53.2,30.00,South,179,9.0,11.0,72,0.00,,OVC047,0.00,VWS V14.01,2013-02-18 06:45:00,
2013-02-18 00:50:00,62.4,53.3,30.00,SSW,193,3.0,10.0,72,0.00,,OVC047,0.00,VWS V14.01,2013-02-18 06:50:00,
2013-02-18 00:55:00,62.4,53.3,30.00,South,187,0.0,10.0,72,0.00,,OVC024,0.00,VWS V14.01,2013-02-18 06:55:00,
2013-02-18 01:00:00,62.4,53.6,30.00,SSE,159,3.0,17.0,73,0.00,,OVC024,0.00,VWS V14.01,2013-02-18 07:00:00,
2013-02-18 01:05:00,62.3,53.5,30.00,South,173,2.0,17.0,73,0.00,,OVC024,0.00,VWS V14.01,2013-02-18 07:05:00,
2013-02-18 01:10:00,62.3,53.5,29.99,SSE,160,4.0,11.0,73,0.00,,OVC024,0.00,VWS V14.01,2013-02-18 07:10:00,
2013-02-18 01:15:00,62.3,53.5,29.99,SSE,153,13.0,13.0,73,0.00,,OVC024,0.00,VWS V14.01,2013-02-18 07:15:00,
2013-02-18 01:20:00,62.3,53.5,29.99,South,175,4.0,10.0,73,0.00,,OVC024,0.00,VWS V14.01,2013-02-18 07:20:00,
2013-02-18 01:25:00,62.3,53.5,29.98,South,172,2.0,20.0,73,0.00,,OVC024,0.00,VWS V14.01,2013-02-18 07:25:00,
2013-02-18 01:30:00,62.1,53.7,29.98,SSE,152,0.0,11.0,74,0.00,,OVC024,0.00,VWS V14.01,2013-02-18 07:30:00,
2013-02-18 01:35:00,62.1,53.7,29.98,SSE,154,1.0,11.0,74,0.00,,OVC024,0.00,VWS V14.01,2013-02-18 07:35:00,
2013-02-18 01:40:00,62.1,53.7,29.98,South,179,6.0,10.0,74,0.00,,OVC024,0.00,VWS V14.01,2013-02-18 07:40:00,
2013-02-18 01:45:00,62.1,53.7,29.98,South,188,1.0,13.0,74,0.00,,OVC024,0.00,VWS V14.01,2013-02-18 07:45:00,
2013-02-18 01:50:00,62.0,53.6,29.98,SSE,165,1.0,12.0,74,0.00,,OVC024,0.00,VWS V14.01,2013-02-18 07:50:00,
2013-02-18 01:55:00,62.0,53.6,29.97,SE,132,12.0,12.0,74,0.00,,OVC036,0.00,VWS V14.01,2013-02-18 07:55:00,
2013-02-18 02:00:00,62.0,54.0,29.97,South,171,1.0,12.0,75,0.00,,OVC036,0.00,VWS V14.01,2013-02-18 08:00:00,
2013-02-18 02:05:00,61.8,53.8,29.97,SE,144,3.0,12.0,75,0.00,,OVC036,0.00,VWS V14.01,2013-02-18 08:05:00,
2013-02-18 02:10:00,61.8,53.8,29.97,SE,132,3.0,12.0,75,0.00,,OVC036,0.00,VWS V14.01,2013-02-18 08:10:00,
2013-02-18 02:15:00,61.8,53.8,29.97,SE,136,2.0,14.0,75,0.00,,OVC036,0.00,VWS V14.01,2013-02-18 08:15:00,
2013-02-18 02:20:00,61.8,53.8,29.97,ESE,114,5.0,9.0,75,0.00,,OVC036,0.00,VWS V14.01,2013-02-18 08:20:00,
2013-02-18 02:25:00,61.8,53.8,29.95,South,175,3.0,15.0,75,0.00,,OVC036,0.00,VWS V14.01,2013-02-18 08:25:00,
2013-02-18 02:30:00,61.8,53.8,29.95,SW,226,4.0,11.0,75,0.00,,OVC036,0.00,VWS V14.01,2013-02-18 08:30:00,
2013-02-18 02:35:00,61.8,54.2,29.95,South,169,0.0,11.0,76,0.00,,OVC036,0.00,VWS V14.01,2013-02-18 08:35:00,
2013-02-18 02:40:00,61.8,54.2,29.95,South,190,4.0,10.0,76,0.00,,OVC036,0.00,VWS V14.01,2013-02-18 08:40:00,
2013-02-18 02:45:00,61.8,54.2,29.95,SSE,148,0.0,10.0,76,0.00,,OVC036,0.00,VWS V14.01,2013-02-18 08:45:00,
2013-02-18 02:50:00,62.0,54.4,29.95,South,174,0.0,10.0,76,0.00,,OVC036,0.00,VWS V14.01,2013-02-18 08:50:00,
2013-02-18 02:55:00,62.0,54.4,29.95,South,184,2.0,10.0,76,0.00,,OVC024,0.00,VWS V14.01,2013-02-18 08:55:00,
2013-02-18 03:00:00,62.0,54.4,29.95,South,180,0.0,11.0,76,0.00,,OVC024,0.00,VWS V14.01,2013-02-18 09:00:00,
2013-02-18 03:05:00,62.1,54.5,29.95,SSE,159,4.0,11.0,76,0.00,,OVC024,0.00,VWS V14.01,2013-02-18 09:05:00,
2013-02-18 03:10:00,62.1,54.5,29.95,South,191,5.0,13.0,76,0.00,,OVC024,0.00,VWS V14.01,2013-02-18 09:10:00,
2013-02-18 03:15:00,62.3,54.7,29.95,South,169,0.0,13.0,76,0.00,,OVC024,0.00,VWS V14.01,2013-02-18 09:15:00,
2013-02-18 03:20:00,62.3,54.3,29.95,South,182,0.0,11.0,75,0.00,,OVC024,0.00,VWS V14.01,2013-02-18 09:20:00,
2013-02-18 03:25:00,62.3,54.7,29.94,SSE,155,0.0,11.0,76,0.00,,OVC024,0.00,VWS V14.01,2013-02-18 09:25:00,
2013-02-18 03:30:00,62.4,54.8,29.94,South,188,3.0,8.0,76,0.00,,OVC024,0.00,VWS V14.01,2013-02-18 09:30:00,
2013-02-18 03:35:00,62.4,54.8,29.94,SSW,192,0.0,8.0,76,0.00,,OVC024,0.00,VWS V14.01,2013-02-18 09:35:00,
2013-02-18 03:40:00,62.4,54.8,29.94,South,182,0.0,11.0,76,0.00,,OVC024,0.00,VWS V14.01,2013-02-18 09:40:00,
2013-02-18 03:45:00,62.6,54.9,29.94,SE,130,3.0,11.0,76,0.00,,OVC024,0.00,VWS V14.01,2013-02-18 09:45:00,
2013-02-18 03:50:00,62.6,54.9,29.94,SSW,192,2.0,16.0,76,0.00,,OVC024,0.00,VWS V14.01,2013-02-18 09:50:00,
2013-02-18 03:55:00,62.7,55.0,29.94,South,169,4.0,16.0,76,0.00,,OVC027,0.00,VWS V14.01,2013-02-18 09:55:00,
2013-02-18 04:00:00,62.9,55.2,29.94,SSW,194,4.0,9.0,76,0.00,,OVC027,0.00,VWS V14.01,2013-02-18 10:00:00,
2013-02-18 04:05:00,62.9,55.2,29.94,South,178,5.0,9.0,76,0.00,,OVC027,0.00,VWS V14.01,2013-02-18 10:05:00,
2013-02-18 04:10:00,63.1,55.4,29.94,South,181,1.0,7.0,76,0.00,,OVC027,0.00,VWS V14.01,2013-02-18 10:10:00,
2013-02-18 04:15:00,63.1,55.4,29.94,SSE,163,9.0,9.0,76,0.00,,OVC027,0.00,VWS V14.01,2013-02-18 10:15:00,
2013-02-18 04:20:00,63.1,55.4,29.94,SSE,153,2.0,10.0,76,0.00,,OVC027,0.00,VWS V14.01,2013-02-18 10:20:00,
2013-02-18 04:25:00,63.2,55.5,29.94,SSW,194,0.0,13.0,76,0.00,,OVC027,0.00,VWS V14.01,2013-02-18 10:25:00,
2013-02-18 04:30:00,63.2,55.5,29.94,SSE,158,0.0,11.0,76,0.00,,OVC050,0.00,VWS V14.01,2013-02-18 10:30:00,
2013-02-18 04:35:00,63.4,55.7,29.94,South,171,4.0,11.0,76,0.00,,OVC041,0.00,VWS V14.01,2013-02-18 10:35:00,
2013-02-18 04:40:00,63.4,55.7,29.93,South,181,5.0,12.0,76,0.00,,OVC041,0.00,VWS V14.01,2013-02-18 10:40:00,
2013-02-18 04:45:00,63.4,55.7,29.93,South,176,4.0,12.0,76,0.00,,OVC041,0.00,VWS V14.01,2013-02-18 10:45:00,
2013-02-18 04:50:00,63.5,55.8,29.93,South,184,0.0,10.0,76,0.00,,OVC041,0.00,VWS V14.01,2013-02-18 10:50:00,
2013-02-18 04:55:00,63.5,55.8,29.93,South,169,4.0,10.0,76,0.00,,OVC028,0.00,VWS V14.01,2013-02-18 10:55:00,
2013-02-18 05:00:00,63.5,55.8,29.93,SSE,161,5.0,5.0,76,0.00,,OVC028,0.00,VWS V14.01,2013-02-18 11:00:00,
2013-02-18 05:05:00,63.7,56.0,29.94,SSW,209,4.0,10.0,76,0.00,,OVC028,0.00,VWS V14.01,2013-02-18 11:05:00,
2013-02-18 05:10:00,63.7,56.0,29.94,SSW,194,6.0,14.0,76,0.00,,OVC028,0.00,VWS V14.01,2013-02-18 11:10:00,
2013-02-18 05:15:00,63.7,56.0,29.94,SSW,192,0.0,14.0,76,0.00,,OVC028,0.00,VWS V14.01,2013-02-18 11:15:00,
2013-02-18 05:20:00,63.7,56.4,29.94,South,175,6.0,11.0,77,0.00,,OVC028,0.00,VWS V14.01,2013-02-18 11:20:00,
2013-02-18 05:25:00,63.7,56.4,29.94,South,186,3.0,11.0,77,0.00,,OVC028,0.00,VWS V14.01,2013-02-18 11:25:00,
2013-02-18 05:30:00,63.5,56.2,29.94,South,173,0.0,6.0,77,0.00,,OVC028,0.00,VWS V14.01,2013-02-18 11:30:00,
2013-02-18 05:35:00,63.5,56.5,29.93,SSE,165,4.0,12.0,78,0.00,,OVC028,0.00,VWS V14.01,2013-02-18 11:35:00,
2013-02-18 05:40:00,63.5,56.5,29.93,SSE,166,0.0,7.0,78,0.00,,OVC028,0.00,VWS V14.01,2013-02-18 11:40:00,
2013-02-18 05:45:00,63.7,56.7,29.93,South,171,6.0,13.0,78,0.00,,OVC028,0.00,VWS V14.01,2013-02-18 11:45:00,
2013-02-18 05:50:00,63.7,56.7,29.93,SSE,147,1.0,12.0,78,0.00,,OVC028,0.00,VWS V14.01,2013-02-18 11:50:00,
2013-02-18 05:55:00,63.7,56.7,29.93,South,186,5.0,12.0,78,0.00,,OVC038,0.00,VWS V14.01,2013-02-18 11:55:00,
2013-02-18 06:00:00,63.7,57.1,29.93,SSE,165,0.0,7.0,79,0.00,,OVC038,0.00,VWS V14.01,2013-02-18 12:00:00,
2013-02-18 06:05:00,63.7,57.1,29.93,SSE,167,9.0,10.0,79,0.00,,OVC038,0.00,VWS V14.01,2013-02-18 12:05:00,
2013-02-18 06:10:00,63.7,57.1,29.93,South,177,1.0,11.0,79,0.00,,OVC038,0.00,VWS V14.01,2013-02-18 12:10:00,
2013-02-18 06:15:00,63.7,57.1,29.93,South,176,4.0,11.0,79,0.00,,OVC038,0.00,VWS V14.01,2013-02-18 12:15:00,
2013-02-18 06:20:00,63.5,56.9,29.93,SE,143,0.0,9.0,79,0.00,,OVC038,0.00,VWS V14.01,2013-02-18 12:20:00,
2013-02-18 06:25:00,63.5,56.9,29.93,SSE,168,5.0,10.0,79,0.00,,OVC038,0.00,VWS V14.01,2013-02-18 12:25:00,
2013-02-18 06:30:00,63.5,57.2,29.93,South,169,2.0,7.0,80,0.00,,OVC038,0.00,VWS V14.01,2013-02-18 12:30:00,
2013-02-18 06:35:00,63.4,57.1,29.92,SSW,193,3.0,10.0,80,0.00,,OVC038,0.00,VWS V14.01,2013-02-18 12:35:00,
2013-02-18 06:40:00,63.5,57.2,29.92,South,175,0.0,11.0,80,0.00,,OVC038,0.00,VWS V14.01,2013-02-18 12:40:00,
2013-02-18 06:45:00,63.5,57.2,29.92,South,184,0.0,11.0,80,0.00,,OVC049,0.00,VWS V14.01,2013-02-18 12:45:00,
2013-02-18 06:50:00,63.5,57.2,29.92,South,178,6.0,6.0,80,0.00,,OVC049,0.00,VWS V14.01,2013-02-18 12:50:00,
2013-02-18 06:55:00,63.5,57.2,29.92,SE,133,6.0,9.0,80,0.00,,OVC060,0.00,VWS V14.01,2013-02-18 12:55:00,
2013-02-18 07:00:00,63.5,57.2,29.92,SSW,192,9.0,10.0,80,0.00,,OVC060,0.00,VWS V14.01,2013-02-18 13:00:00,
2013-02-18 07:05:00,63.5,57.2,29.92,SSE,158,0.0,10.0,80,0.00,,OVC060,0.00,VWS V14.01,2013-02-18 13:05:00,
2013-02-18 07:10:00,63.5,57.6,29.92,SSW,200,3.0,11.0,81,0.00,,OVC060,0.00,VWS V14.01,2013-02-18 13:10:00,
2013-02-18 07:15:00,63.5,57.6,29.92,South,186,5.0,11.0,81,0.00,,OVC060,0.00,VWS V14.01,2013-02-18 13:15:00,
2013-02-18 07:20:00,63.5,57.6,29.92,South,182,0.0,12.0,81,0.00,,OVC060,0.00,VWS V14.01,2013-02-18 13:20:00,
2013-02-18 07:25:00,63.5,57.6,29.92,SE,139,5.0,12.0,81,0.00,,OVC060,0.00,VWS V14.01,2013-02-18 13:25:00,
2013-02-18 07:30:00,63.7,57.8,29.92,ESE,123,3.0,9.0,81,0.00,,OVC060,0.00,VWS V14.01,2013-02-18 13:30:00,
2013-02-18 07:35:00,63.7,57.8,29.93,SSW,198,5.0,12.0,81,0.00,,OVC060,0.00,VWS V14.01,2013-02-18 13:35:00,
2013-02-18 07:40:00,63.9,58.0,29.93,South,182,0.0,9.0,81,0.00,,OVC060,0.00,VWS V14.01,2013-02-18 13:40:00,
2013-02-18 07:45:00,64.0,58.1,29.93,South,182,6.0,9.0,81,0.00,,OVC060,0.00,VWS V14.01,2013-02-18 13:45:00,
2013-02-18 07:50:00,64.0,58.1,29.93,South,184,5.0,12.0,81,0.00,,OVC060,0.00,VWS V14.01,2013-02-18 13:50:00,
2013-02-18 07:55:00,64.0,58.1,29.93,SSW,197,6.0,12.0,81,0.00,,OVC055,0.00,VWS V14.01,2013-02-18 13:55:00,
2013-02-18 08:00:00,64.2,58.3,29.93,SSW,207,2.0,11.0,81,0.00,,OVC055,0.00,VWS V14.01,2013-02-18 14:00:00,
2013-02-18 08:05:00,64.2,58.3,29.93,SSE,157,7.0,11.0,81,0.00,,OVC055,0.00,VWS V14.01,2013-02-18 14:05:00,
2013-02-18 08:10:00,64.3,58.3,29.93,SSW,200,4.0,10.0,81,0.00,,OVC055,0.00,VWS V14.01,2013-02-18 14:10:00,
2013-02-18 08:15:00,64.3,58.3,29.93,SSE,155,1.0,10.0,81,0.00,,OVC055,0.00,VWS V14.01,2013-02-18 14:15:00,
2013-02-18 08:20:00,64.5,58.5,29.94,SSW,200,3.0,7.0,81,0.00,,OVC055,0.00,VWS V14.01,2013-02-18 14:20:00,
2013-02-18 08:25:00,64.5,58.5,29.94,SSW,200,3.0,7.0,81,0.00,,OVC055,0.00,VWS V14.01,2013-02-18 14:25:00,
2013-02-18 08:30:00,64.7,58.7,29.94,South,171,3.0,9.0,81,0.00,,OVC055,0.00,VWS V14.01,2013-02-18 14:30:00,
2013-02-18 08:35:00,64.8,58.8,29.95,SSW,202,2.0,12.0,81,0.00,,OVC055,0.00,VWS V14.01,2013-02-18 14:35:00,
2013-02-18 08:40:00,65.0,58.7,29.95,South,190,8.0,9.0,80,0.00,,OVC055,0.00,VWS V14.01,2013-02-18 14:40:00,
2013-02-18 08:45:00,65.2,59.2,29.95,South,170,1.0,12.0,81,0.00,,OVC055,0.00,VWS V14.01,2013-02-18 14:45:00,
2013-02-18 08:50:00,65.2,59.2,29.96,South,174,0.0,12.0,81,0.00,,OVC055,0.00,VWS V14.01,2013-02-18 14:50:00,
2013-02-18 08:55:00,65.3,59.0,29.96,South,170,7.0,12.0,80,0.00,,OVC022,0.00,VWS V14.01,2013-02-18 14:55:00,
2013-02-18 09:00:00,65.3,59.0,29.96,South,189,6.0,13.0,80,0.00,,OVC022,0.00,VWS V14.01,2013-02-18 15:00:00,
2013-02-18 09:05:00,65.5,59.5,29.96,South,169,0.0,13.0,81,0.00,,OVC022,0.00,VWS V14.01,2013-02-18 15:05:00,
2013-02-18 09:10:00,65.5,59.2,29.96,South,184,1.0,9.0,80,0.00,,OVC022,0.00,VWS V14.01,2013-02-18 15:10:00,
2013-02-18 09:15:00,65.6,59.3,29.96,SSW,200,9.0,12.0,80,0.00,,OVC022,0.00,VWS V14.01,2013-02-18 15:15:00,
2013-02-18 09:20:00,65.8,59.5,29.97,SE,143,10.0,15.0,80,0.00,,OVC022,0.00,VWS V14.01,2013-02-18 15:20:00,
2013-02-18 09:25:00,66.0,59.7,29.97,SSW,193,7.0,15.0,80,0.00,,OVC022,0.00,VWS V14.01,2013-02-18 15:25:00,
2013-02-18 09:30:00,66.0,59.7,29.97,SSW,198,0.0,12.0,80,0.00,,OVC022,0.00,VWS V14.01,2013-02-18 15:30:00,
2013-02-18 09:35:00,66.1,60.1,29.97,SSW,195,0.0,12.0,81,0.00,,OVC055,0.00,VWS V14.01,2013-02-18 15:35:00,
2013-02-18 09:40:00,65.6,60.0,29.97,South,190,11.0,12.0,82,0.00,,OVC055,0.00,VWS V14.01,2013-02-18 15:40:00,
2013-02-18 09:45:00,65.5,60.2,29.97,South,188,1.0,12.0,83,0.00,,OVC055,0.00,VWS V14.01,2013-02-18 15:45:00,
2013-02-18 09:50:00,65.2,60.6,29.97,South,187,7.0,12.0,85,0.00,,OVC055,0.00,VWS V14.01,2013-02-18 15:50:00,
2013-02-18 09:55:00,65.3,60.7,29.97,South,174,0.0,12.0,85,0.00,,OVC060,0.00,VWS V14.01,2013-02-18 15:55:00,
2013-02-18 10:00:00,65.5,60.9,29.97,SSE,161,4.0,13.0,85,0.00,,OVC060,0.00,VWS V14.01,2013-02-18 16:00:00,
2013-02-18 10:05:00,66.0,61.4,29.97,SSW,195,0.0,13.0,85,0.00,,OVC060,0.00,VWS V14.01,2013-02-18 16:05:00,
2013-02-18 10:10:00,66.6,61.3,29.97,South,172,5.0,14.0,83,0.00,,OVC055,0.00,VWS V14.01,2013-02-18 16:10:00,
2013-02-18 10:15:00,67.1,61.1,29.97,SSE,168,2.0,15.0,81,0.00,,OVC055,0.00,VWS V14.01,2013-02-18 16:15:00,
2013-02-18 10:20:00,67.3,60.9,29.98,SSE,165,5.0,13.0,80,0.00,,OVC055,0.00,VWS V14.01,2013-02-18 16:20:00,
2013-02-18 10:25:00,67.4,60.7,29.98,South,191,7.0,13.0,79,0.00,,OVC055,0.00,VWS V14.01,2013-02-18 16:25:00,
2013-02-18 10:30:00,67.6,60.9,29.98,SSE,153,10.0,12.0,79,0.00,,OVC055,0.00,VWS V14.01,2013-02-18 16:30:00,
2013-02-18 10:35:00,67.6,60.5,29.98,South,182,0.0,12.0,78,0.00,,OVC055,0.00,VWS V14.01,2013-02-18 16:35:00,
2013-02-18 10:40:00,67.9,60.4,29.98,SSW,193,0.0,10.0,77,0.00,,OVC055,0.00,VWS V14.01,2013-02-18 16:40:00,
2013-02-18 10:45:00,68.4,60.9,29.98,WSW,238,0.0,11.0,77,0.00,,OVC055,0.00,VWS V14.01,2013-02-18 16:45:00,
2013-02-18 10:50:00,68.6,60.4,29.98,South,180,9.0,12.0,75,0.00,,OVC055,0.00,VWS V14.01,2013-02-18 16:50:00,
2013-02-18 10:55:00,68.8,60.2,29.98,SSW,196,7.0,15.0,74,0.00,,BKN060,0.00,VWS V14.01,2013-02-18 16:55:00,
2013-02-18 11:00:00,69.1,60.8,29.98,SSW,194,9.0,12.0,75,0.00,,BKN060,0.00,VWS V14.01,2013-02-18 17:00:00,
2013-02-18 11:05:00,69.1,60.5,29.98,South,171,4.0,12.0,74,0.00,,OVC060,0.00,VWS V14.01,2013-02-18 17:05:00,
2013-02-18 11:10:00,69.3,60.7,29.98,SW,223,1.0,13.0,74,0.00,,OVC060,0.00,VWS V14.01,2013-02-18 17:10:00,
2013-02-18 11:15:00,69.4,60.8,29.98,SSW,192,9.0,14.0,74,0.00,,OVC060,0.00,VWS V14.01,2013-02-18 17:15:00,
2013-02-18 11:20:00,69.6,60.6,29.98,SSW,209,1.0,10.0,73,0.00,,OVC060,0.00,VWS V14.01,2013-02-18 17:20:00,
2013-02-18 11:25:00,69.8,60.8,29.98,SW,219,3.0,10.0,73,0.00,,OVC060,0.00,VWS V14.01,2013-02-18 17:25:00,
2013-02-18 11:30:00,70.3,60.5,29.98,SE,139,2.0,14.0,71,0.00,,OVC060,0.00,VWS V14.01,2013-02-18 17:30:00,
2013-02-18 11:35:00,70.4,60.6,29.98,SSE,157,5.0,15.0,71,0.00,,OVC060,0.00,VWS V14.01,2013-02-18 17:35:00,
2013-02-18 11:40:00,70.8,60.5,29.98,SW,218,7.0,10.0,70,0.00,,OVC060,0.00,VWS V14.01,2013-02-18 17:40:00,
2013-02-18 11:45:00,71.1,60.8,29.98,SSW,206,0.0,11.0,70,0.00,,OVC060,0.00,VWS V14.01,2013-02-18 17:45:00,
2013-02-18 11:50:00,71.5,60.8,29.97,SSW,207,7.0,12.0,69,0.00,,OVC060,0.00,VWS V14.01,2013-02-18 17:50:00,
2013-02-18 11:55:00,71.3,60.2,29.97,South,177,5.0,12.0,68,0.00,,BKN029,0.00,VWS V14.01,2013-02-18 17:55:00,
2013-02-18 12:00:00,71.6,60.5,29.97,South,186,8.0,10.0,68,0.00,,BKN029,0.00,VWS V14.01,2013-02-18 18:00:00,
2013-02-18 12:05:00,71.5,60.0,29.96,SSW,205,13.0,13.0,67,0.00,,BKN043,0.00,VWS V14.01,2013-02-18 18:05:00,
2013-02-18 12:10:00,71.6,59.7,29.96,South,190,11.0,14.0,66,0.00,,BKN043,0.00,VWS V14.01,2013-02-18 18:10:00,
2013-02-18 12:15:00,72.1,59.7,29.96,South,181,9.0,14.0,65,0.00,,BKN043,0.00,VWS V14.01,2013-02-18 18:15:00,
2013-02-18 12:20:00,72.5,60.1,29.94,SW,215,6.0,16.0,65,0.00,,BKN043,0.00,VWS V14.01,2013-02-18 18:20:00,
2013-02-18 12:25:00,72.3,59.5,29.94,South,188,3.0,17.0,64,0.00,,BKN043,0.00,VWS V14.01,2013-02-18 18:25:00,
2013-02-18 12:30:00,72.8,59.5,29.94,South,185,6.0,12.0,63,0.00,,BKN043,0.00,VWS V14.01,2013-02-18 18:30:00,
2013-02-18 12:35:00,73.5,59.7,29.93,SW,229,2.0,12.0,62,0.00,,BKN043,0.00,VWS V14.01,2013-02-18 18:35:00,
2013-02-18 12:40:00,74.0,59.2,29.93,SSW,207,2.0,14.0,60,0.00,,BKN043,0.00,VWS V14.01,2013-02-18 18:40:00,
2013-02-18 12:45:00,73.7,59.0,29.93,South,176,4.0,14.0,60,0.00,,BKN043,0.00,VWS V14.01,2013-02-18 18:45:00,
2013-02-18 12:50:00,73.9,59.2,29.93,South,180,6.0,12.0,60,0.00,,BKN043,0.00,VWS V14.01,2013-02-18 18:50:00,
2013-02-18 12:55:00,74.0,59.2,29.93,SSW,209,2.0,13.0,60,0.00,,BKN033,0.00,VWS V14.01,2013-02-18 18:55:00,
2013-02-18 13:00:00,74.9,58.2,29.93,South,180,4.0,11.0,56,0.00,,BKN033,0.00,VWS V14.01,2013-02-18 19:00:00,
2013-02-18 13:05:00,75.4,58.1,29.92,South,180,5.0,11.0,55,0.00,,BKN033,0.00,VWS V14.01,2013-02-18 19:05:00,
2013-02-18 13:10:00,75.8,58.0,29.92,South,184,5.0,11.0,54,0.00,,BKN033,0.00,VWS V14.01,2013-02-18 19:10:00,
2013-02-18 13:15:00,75.4,57.1,29.92,South,177,0.0,11.0,53,0.00,,BKN033,0.00,VWS V14.01,2013-02-18 19:15:00,
2013-02-18 13:20:00,75.8,57.5,29.91,SSE,149,8.0,11.0,53,0.00,,BKN033,0.00,VWS V14.01,2013-02-18 19:20:00,
2013-02-18 13:25:00,76.0,57.7,29.91,SSW,194,13.0,13.0,53,0.00,,BKN033,0.00,VWS V14.01,2013-02-18 19:25:00,
2013-02-18 13:30:00,76.0,56.6,29.91,SSW,192,11.0,16.0,51,0.00,,BKN033,0.00,VWS V14.01,2013-02-18 19:30:00,
2013-02-18 13:35:00,75.4,57.1,29.90,SSE,165,4.0,16.0,53,0.00,,BKN033,0.00,VWS V14.01,2013-02-18 19:35:00,
2013-02-18 13:40:00,76.5,56.5,29.90,South,169,6.0,10.0,50,0.00,,BKN033,0.00,VWS V14.01,2013-02-18 19:40:00,
2013-02-18 13:45:00,76.7,56.7,29.90,SSE,157,7.0,13.0,50,0.00,,BKN033,0.00,VWS V14.01,2013-02-18 19:45:00,
2013-02-18 13:50:00,76.8,55.7,29.89,SSW,198,6.0,10.0,48,0.00,,BKN033,0.00,VWS V14.01,2013-02-18 19:50:00,
2013-02-18 13:55:00,77.4,55.0,29.89,SSW,206,6.0,10.0,46,0.00,,FEW046,0.00,VWS V14.01,2013-02-18 19:55:00,
2013-02-18 14:00:00,77.7,54.7,29.89,South,186,3.0,9.0,45,0.00,,FEW046,0.00,VWS V14.01,2013-02-18 20:00:00,
2013-02-18 14:05:00,78.3,55.2,29.88,SW,224,0.0,11.0,45,0.00,,FEW046,0.00,VWS V14.01,2013-02-18 20:05:00,
2013-02-18 14:10:00,78.1,55.7,29.88,SW,226,1.0,12.0,46,0.00,,FEW046,0.00,VWS V14.01,2013-02-18 20:10:00,
2013-02-18 14:15:00,78.5,54.8,29.88,WSW,248,5.0,12.0,44,0.00,,FEW046,0.00,VWS V14.01,2013-02-18 20:15:00,
2013-02-18 14:20:00,78.5,53.5,29.88,West,270,1.0,7.0,42,0.00,,FEW046,0.00,VWS V14.01,2013-02-18 20:20:00,
2013-02-18 14:25:00,79.0,54.6,29.88,South,171,6.0,13.0,43,0.00,,FEW046,0.00,VWS V14.01,2013-02-18 20:25:00,
2013-02-18 14:30:00,78.6,54.3,29.88,WSW,250,1.0,8.0,43,0.00,,FEW046,0.00,VWS V14.01,2013-02-18 20:30:00,
2013-02-18 14:35:00,79.2,52.8,29.88,WSW,238,3.0,12.0,40,0.00,,FEW046,0.00,VWS V14.01,2013-02-18 20:35:00,
2013-02-18 14:40:00,79.2,52.8,29.88,WSW,243,4.0,9.0,40,0.00,,FEW046,0.00,VWS V14.01,2013-02-18 20:40:00,
2013-02-18 14:45:00,79.0,52.6,29.88,SW,231,3.0,12.0,40,0.00,,FEW046,0.00,VWS V14.01,2013-02-18 20:45:00,
2013-02-18 14:50:00,79.4,52.3,29.87,SSW,192,3.0,6.0,39,0.00,,FEW046,0.00,VWS V14.01,2013-02-18 20:50:00,
2013-02-18 14:55:00,79.6,52.5,29.87,South,184,2.0,7.0,39,0.00,,FEW050,0.00,VWS V14.01,2013-02-18 20:55:00,
2013-02-18 15:00:00,79.8,52.7,29.87,South,169,3.0,6.0,39,0.00,,FEW050,0.00,VWS V14.01,2013-02-18 21:00:00,
2013-02-18 15:05:00,80.1,50.8,29.87,WSW,252,2.0,11.0,36,0.00,,FEW050,0.00,VWS V14.01,2013-02-18 21:05:00,
2013-02-18 15:10:00,80.1,50.8,29.87,West,269,0.0,11.0,36,0.00,,FEW050,0.00,VWS V14.01,2013-02-18 21:10:00,
2013-02-18 15:15:00,79.9,50.6,29.87,South,182,2.0,11.0,36,0.00,,FEW050,0.00,VWS V14.01,2013-02-18 21:15:00,
2013-02-18 15:20:00,80.5,51.1,29.87,WSW,248,3.0,6.0,36,0.00,,FEW050,0.00,VWS V14.01,2013-02-18 21:20:00,
2013-02-18 15:25:00,80.7,51.3,29.87,South,190,5.0,13.0,36,0.00,,FEW050,0.00,VWS V14.01,2013-02-18 21:25:00,
2013-02-18 15:30:00,80.3,50.9,29.87,SSW,195,6.0,9.0,36,0.00,,FEW050,0.00,VWS V14.01,2013-02-18 21:30:00,
2013-02-18 15:35:00,80.3,50.9,29.87,SSW,197,4.0,10.0,36,0.00,,FEW050,0.00,VWS V14.01,2013-02-18 21:35:00,
2013-02-18 15:40:00,80.3,50.2,29.87,SW,230,0.0,7.0,35,0.00,,FEW050,0.00,VWS V14.01,2013-02-18 21:40:00,
2013-02-18 15:45:00,81.1,49.3,29.87,West,259,6.0,7.0,33,0.00,,FEW050,0.00,VWS V14.01,2013-02-18 21:45:00,
2013-02-18 15:50:00,81.1,49.3,29.86,West,275,6.0,13.0,33,0.00,,FEW050,0.00,VWS V14.01,2013-02-18 21:50:00,
2013-02-18 15:55:00,80.9,49.1,29.86,WSW,244,6.0,13.0,33,0.00,,FEW050,0.00,VWS V14.01,2013-02-18 21:55:00,
2013-02-18 16:00:00,81.1,49.3,29.86,South,176,2.0,6.0,33,0.00,,FEW050,0.00,VWS V14.01,2013-02-18 22:00:00,
2013-02-18 16:05:00,80.9,49.1,29.86,SSE,168,0.0,6.0,33,0.00,,FEW050,0.00,VWS V14.01,2013-02-18 22:05:00,
2013-02-18 16:10:00,80.9,49.1,29.86,WSW,242,2.0,5.0,33,0.00,,FEW050,0.00,VWS V14.01,2013-02-18 22:10:00,
2013-02-18 16:15:00,80.9,49.1,29.86,SW,215,0.0,7.0,33,0.00,,FEW050,0.00,VWS V14.01,2013-02-18 22:15:00,
2013-02-18 16:20:00,80.7,49.0,29.87,West,277,2.0,8.0,33,0.00,,FEW050,0.00,VWS V14.01,2013-02-18 22:20:00,
2013-02-18 16:25:00,80.7,48.1,29.87,West,270,3.0,9.0,32,0.00,,FEW050,0.00,VWS V14.01,2013-02-18 22:25:00,
2013-02-18 16:30:00,81.2,47.7,29.87,SW,225,0.0,7.0,31,0.00,,FEW050,0.00,VWS V14.01,2013-02-18 22:30:00,
2013-02-18 16:35:00,81.6,47.2,29.87,WSW,248,0.0,7.0,30,0.00,,FEW050,0.00,VWS V14.01,2013-02-18 22:35:00,
2013-02-18 16:40:00,81.1,46.8,29.87,SSW,198,0.0,10.0,30,0.00,,FEW050,0.00,VWS V14.01,2013-02-18 22:40:00,
2013-02-18 16:45:00,81.1,47.6,29.87,South,178,9.0,10.0,31,0.00,,FEW050,0.00,VWS V14.01,2013-02-18 22:45:00,
2013-02-18 16:50:00,80.7,47.3,29.87,South,184,0.0,11.0,31,0.00,,FEW050,0.00,VWS V14.01,2013-02-18 22:50:00,
2013-02-18 16:55:00,80.7,46.4,29.87,West,278,3.0,11.0,30,0.00,,FEW085,0.00,VWS V14.01,2013-02-18 22:55:00,
2013-02-18 17:01:00,80.9,45.7,29.87,SSW,207,0.0,6.0,29,0.00,,FEW085,0.00,VWS V14.01,2013-02-18 23:01:00,
2013-02-18 17:06:00,80.9,46.6,29.87,SSW,193,0.0,7.0,30,0.00,,FEW085,0.00,VWS V14.01,2013-02-18 23:06:00,
2013-02-18 17:11:00,80.9,45.7,29.87,SSE,168,0.0,9.0,29,0.00,,FEW085,0.00,VWS V14.01,2013-02-18 23:11:00,
2013-02-18 17:16:00,80.7,46.4,29.87,SSW,198,0.0,9.0,30,0.00,,FEW085,0.00,VWS V14.01,2013-02-18 23:16:00,
2013-02-18 17:21:00,80.7,47.3,29.87,South,186,0.0,5.0,31,0.00,,FEW085,0.00,VWS V14.01,2013-02-18 23:21:00,
2013-02-18 17:26:00,80.7,46.4,29.87,WSW,252,0.0,5.0,30,0.00,,FEW085,0.00,VWS V14.01,2013-02-18 23:26:00,
2013-02-18 17:31:00,80.5,46.2,29.87,South,184,5.0,9.0,30,0.00,,FEW085,0.00,VWS V14.01,2013-02-18 23:31:00,
2013-02-18 17:36:00,79.8,46.5,29.88,South,182,2.0,10.0,31,0.00,,FEW085,0.00,VWS V14.01,2013-02-18 23:36:00,
2013-02-18 17:41:00,79.6,46.3,29.88,South,181,0.0,1.0,31,0.00,,FEW085,0.00,VWS V14.01,2013-02-18 23:41:00,
2013-02-18 17:46:00,79.2,46.0,29.88,South,175,0.0,4.0,31,0.00,,FEW085,0.00,VWS V14.01,2013-02-18 23:46:00,
2013-02-18 17:50:00,79.0,46.7,29.89,SSW,194,0.0,5.0,32,0.00,,FEW085,0.00,VWS V14.01,2013-02-18 23:50:00,
2013-02-18 17:55:00,78.6,46.3,29.89,South,188,0.0,5.0,32,0.00,,CLR,0.00,VWS V14.01,2013-02-18 23:55:00,
2013-02-18 18:00:00,78.5,47.0,29.89,South,186,0.0,4.0,33,0.00,,CLR,0.00,VWS V14.01,2013-02-19 00:00:00,
2013-02-18 18:06:00,78.1,47.5,29.89,South,190,0.0,5.0,34,0.00,,CLR,0.00,VWS V14.01,2013-02-19 00:06:00,
2013-02-18 18:11:00,77.7,47.9,29.89,South,190,0.0,4.0,35,0.00,,CLR,0.00,VWS V14.01,2013-02-19 00:11:00,
2013-02-18 18:15:00,77.4,48.4,29.89,South,190,0.0,4.0,36,0.00,,CLR,0.00,VWS V14.01,2013-02-19 00:15:00,
2013-02-18 18:20:00,77.0,48.0,29.90,South,189,0.0,2.0,36,0.00,,CLR,0.00,VWS V14.01,2013-02-19 00:20:00,
2013-02-18 18:25:00,76.8,48.6,29.90,South,189,0.0,2.0,37,0.00,,CLR,0.00,VWS V14.01,2013-02-19 00:25:00,
2013-02-18 18:30:00,76.5,48.3,29.90,South,189,0.0,0.0,37,0.00,,CLR,0.00,VWS V14.01,2013-02-19 00:30:00,
2013-02-18 18:35:00,76.1,48.7,29.90,South,189,0.0,0.0,38,0.00,,CLR,0.00,VWS V14.01,2013-02-19 00:35:00,
2013-02-18 18:40:00,76.0,48.6,29.90,South,189,0.0,0.0,38,0.00,,CLR,0.00,VWS V14.01,2013-02-19 00:40:00,
2013-02-18 18:45:00,75.6,48.9,29.90,South,189,0.0,0.0,39,0.00,,CLR,0.00,VWS V14.01,2013-02-19 00:45:00,
2013-02-18 18:51:00,75.3,48.7,29.91,South,189,0.0,0.0,39,0.00,,CLR,0.00,VWS V14.01,2013-02-19 00:51:00,
2013-02-18 18:56:00,75.1,48.5,29.91,South,188,0.0,0.0,39,0.00,,CLR,0.00,VWS V14.01,2013-02-19 00:56:00,
2013-02-18 19:01:00,74.9,48.3,29.91,South,188,0.0,0.0,39,0.00,,CLR,0.00,VWS V14.01,2013-02-19 01:01:00,
2013-02-18 19:06:00,74.4,48.5,29.92,South,188,0.0,0.0,40,0.00,,CLR,0.00,VWS V14.01,2013-02-19 01:06:00,
2013-02-18 19:10:00,74.2,48.3,29.92,South,188,0.0,0.0,40,0.00,,CLR,0.00,VWS V14.01,2013-02-19 01:10:00,
2013-02-18 19:15:00,73.9,48.1,29.92,South,188,0.0,0.0,40,0.00,,CLR,0.00,VWS V14.01,2013-02-19 01:15:00,
2013-02-18 19:20:00,73.5,47.7,29.93,South,188,0.0,0.0,40,0.00,,CLR,0.00,VWS V14.01,2013-02-19 01:20:00,
2013-02-18 19:25:00,73.2,48.1,29.93,South,188,0.0,0.0,41,0.00,,CLR,0.00,VWS V14.01,2013-02-19 01:25:00,
2013-02-18 19:31:00,73.0,47.9,29.93,South,188,0.0,0.0,41,0.00,,CLR,0.00,VWS V14.01,2013-02-19 01:31:00,
2013-02-18 19:36:00,72.7,48.9,29.94,South,188,0.0,0.0,43,0.00,,CLR,0.00,VWS V14.01,2013-02-19 01:36:00,
2013-02-18 19:41:00,72.1,48.4,29.94,South,188,0.0,0.0,43,0.00,,CLR,0.00,VWS V14.01,2013-02-19 01:41:00,
2013-02-18 19:46:00,71.8,48.7,29.94,South,188,0.0,0.0,44,0.00,,CLR,0.00,VWS V14.01,2013-02-19 01:46:00,
2013-02-18 19:51:00,71.6,48.6,29.95,South,188,0.0,0.0,44,0.00,,CLR,0.00,VWS V14.01,2013-02-19 01:51:00,
2013-02-18 19:56:00,71.5,49.1,29.95,South,188,0.0,0.0,45,0.00,,CLR,0.00,VWS V14.01,2013-02-19 01:56:00,
2013-02-18 20:01:00,71.1,49.3,29.95,SSW,205,1.0,3.0,46,0.00,,CLR,0.00,VWS V14.01,2013-02-19 02:01:00,
2013-02-18 20:06:00,70.3,48.6,29.97,WNW,290,0.0,7.0,46,0.00,,CLR,0.00,VWS V14.01,2013-02-19 02:06:00,
2013-02-18 20:11:00,69.9,48.8,29.97,WNW,300,2.0,2.0,47,0.00,,CLR,0.00,VWS V14.01,2013-02-19 02:11:00,
2013-02-18 20:16:00,69.4,48.3,29.97,NNW,328,0.0,6.0,47,0.00,,CLR,0.00,VWS V14.01,2013-02-19 02:16:00,
2013-02-18 20:21:00,69.4,48.3,29.98,NNW,328,0.0,0.0,47,0.00,,CLR,0.00,VWS V14.01,2013-02-19 02:21:00,
2013-02-18 20:26:00,69.4,48.3,29.98,WNW,302,0.0,4.0,47,0.00,,CLR,0.00,VWS V14.01,2013-02-19 02:26:00,
2013-02-18 20:31:00,69.8,46.9,29.98,NW,309,0.0,7.0,44,0.00,,CLR,0.00,VWS V14.01,2013-02-19 02:31:00,
2013-02-18 20:36:00,70.1,45.3,29.98,NNW,346,3.0,7.0,41,0.00,,CLR,0.00,VWS V14.01,2013-02-19 02:36:00,
2013-02-18 20:41:00,70.4,38.3,29.98,NNE,15,6.0,7.0,31,0.00,,CLR,0.00,VWS V14.01,2013-02-19 02:41:00,
2013-02-18 20:46:00,71.1,33.5,29.98,NNW,347,4.0,11.0,25,0.00,,CLR,0.00,VWS V14.01,2013-02-19 02:46:00,
2013-02-18 20:51:00,71.3,30.5,30.00,NNW,344,5.0,11.0,22,0.00,,CLR,0.00,VWS V14.01,2013-02-19 02:51:00,
2013-02-18 20:56:00,71.5,28.4,30.00,North,5,4.0,11.0,20,0.00,,CLR,0.00,VWS V14.01,2013-02-19 02:56:00,
2013-02-18 21:01:00,71.8,26.0,30.00,NNW,339,4.0,8.0,18,0.00,,CLR,0.00,VWS V14.01,2013-02-19 03:01:00,
2013-02-18 21:06:00,72.1,24.9,30.01,NNE,22,8.0,12.0,17,0.00,,CLR,0.00,VWS V14.01,2013-02-19 03:06:00,
2013-02-18 21:11:00,72.3,23.6,30.01,NNW,339,14.0,15.0,16,0.00,,CLR,0.00,VWS V14.01,2013-02-19 03:11:00,
2013-02-18 21:16:00,72.1,24.9,30.01,NNE,17,8.0,20.0,17,0.00,,CLR,0.00,VWS V14.01,2013-02-19 03:16:00,
2013-02-18 21:21:00,71.3,25.6,30.03,North,355,16.0,16.0,18,0.00,,CLR,0.00,VWS V14.01,2013-02-19 03:21:00,
2013-02-18 21:26:00,70.3,26.1,30.03,NNW,340,13.0,16.0,19,0.00,,CLR,0.00,VWS V14.01,2013-02-19 03:26:00,
2013-02-18 21:31:00,69.4,25.4,30.03,North,349,7.0,10.0,19,0.00,,CLR,0.00,VWS V14.01,2013-02-19 03:31:00,
2013-02-18 21:36:00,68.8,27.3,30.05,NNW,327,5.0,10.0,21,0.00,,CLR,0.00,VWS V14.01,2013-02-19 03:36:00,
2013-02-18 21:41:00,68.3,26.9,30.05,NNE,19,6.0,15.0,21,0.00,,CLR,0.00,VWS V14.01,2013-02-19 03:41:00,
2013-02-18 21:46:00,67.8,27.6,30.05,NNE,19,6.0,15.0,22,0.00,,CLR,0.00,VWS V14.01,2013-02-19 03:46:00,
2013-02-18 21:51:00,67.4,28.4,30.06,NNW,344,2.0,9.0,23,0.00,,CLR,0.00,VWS V14.01,2013-02-19 03:51:00,
2013-02-18 21:56:00,66.9,29.0,30.06,North,360,10.0,12.0,24,0.00,,CLR,0.00,VWS V14.01,2013-02-19 03:56:00,
2013-02-18 22:01:00,66.4,28.5,30.06,NNW,342,10.0,14.0,24,0.00,,CLR,0.00,VWS V14.01,2013-02-19 04:01:00,
2013-02-18 22:06:00,66.1,29.3,30.07,NNW,338,6.0,6.0,25,0.00,,CLR,0.00,VWS V14.01,2013-02-19 04:06:00,
2013-02-18 22:11:00,66.0,29.2,30.07,NNE,15,11.0,16.0,25,0.00,,CLR,0.00,VWS V14.01,2013-02-19 04:11:00,
2013-02-18 22:16:00,65.8,30.0,30.07,North,355,8.0,12.0,26,0.00,,CLR,0.00,VWS V14.01,2013-02-19 04:16:00,
2013-02-18 22:21:00,65.6,29.8,30.07,NNE,15,5.0,15.0,26,0.00,,CLR,0.00,VWS V14.01,2013-02-19 04:21:00,
2013-02-18 22:26:00,65.6,29.8,30.07,North,10,5.0,5.0,26,0.00,,CLR,0.00,VWS V14.01,2013-02-19 04:26:00,
2013-02-18 22:31:00,65.0,30.2,30.07,NNW,335,7.0,10.0,27,0.00,,CLR,0.00,VWS V14.01,2013-02-19 04:31:00,
2013-02-18 22:36:00,64.7,30.0,30.08,North,11,10.0,11.0,27,0.00,,CLR,0.00,VWS V14.01,2013-02-19 04:36:00,
2013-02-18 22:41:00,64.3,29.6,30.08,NNW,346,6.0,11.0,27,0.00,,CLR,0.00,VWS V14.01,2013-02-19 04:41:00,
2013-02-18 22:46:00,64.0,30.3,30.08,NNW,348,5.0,5.0,28,0.00,,CLR,0.00,VWS V14.01,2013-02-19 04:46:00,
2013-02-18 22:51:00,63.9,30.2,30.09,NNW,340,5.0,11.0,28,0.00,,CLR,0.00,VWS V14.01,2013-02-19 04:51:00,
2013-02-18 22:56:00,63.5,29.0,30.09,NNE,13,3.0,5.0,27,0.00,,CLR,0.00,VWS V14.01,2013-02-19 04:56:00,
2013-02-18 23:00:00,63.4,28.9,30.09,North,350,7.0,12.0,27,0.00,,CLR,0.00,VWS V14.01,2013-02-19 05:00:00,
2013-02-18 23:01:00,63.4,28.9,30.09,North,355,6.0,12.0,27,0.00,,CLR,0.00,VWS V14.01,2013-02-19 05:01:00,
2013-02-18 23:06:00,63.2,29.6,30.10,North,5,2.0,12.0,28,0.00,,CLR,0.00,VWS V14.01,2013-02-19 05:06:00,
2013-02-18 23:11:00,63.1,29.5,30.10,NE,40,7.0,10.0,28,0.00,,CLR,0.00,VWS V14.01,2013-02-19 05:11:00,
2013-02-18 23:16:00,62.9,29.3,30.10,NNE,15,7.0,13.0,28,0.00,,CLR,0.00,VWS V14.01,2013-02-19 05:16:00,
2013-02-18 23:21:00,62.7,29.1,30.10,NE,39,4.0,9.0,28,0.00,,CLR,0.00,VWS V14.01,2013-02-19 05:21:00,
2013-02-18 23:26:00,62.6,29.9,30.10,North,355,6.0,13.0,29,0.00,,CLR,0.00,VWS V14.01,2013-02-19 05:26:00,
2013-02-18 23:31:00,62.4,29.8,30.10,North,349,6.0,12.0,29,0.00,,CLR,0.00,VWS V14.01,2013-02-19 05:31:00,
2013-02-18 23:36:00,62.3,29.7,30.09,NNE,15,6.0,13.0,29,0.00,,CLR,0.00,VWS V14.01,2013-02-19 05:36:00,
2013-02-18 23:41:00,62.1,29.5,30.09,NNW,347,7.0,15.0,29,0.00,,CLR,0.00,VWS V14.01,2013-02-19 05:41:00,
2013-02-18 23:46:00,62.0,29.4,30.09,NNW,341,6.0,17.0,29,0.00,,CLR,0.00,VWS V14.01,2013-02-19 05:46:00,
2013-02-18 23:51:00,61.8,30.1,30.09,North,355,5.0,14.0,30,0.00,,CLR,0.00,VWS V14.01,2013-02-19 05:51:00,
2013-02-18 23:56:00,61.6,29.9,30.09,NNW,343,6.0,14.0,30,0.00,,CLR,0.00,VWS V14.01,2013-02-19 05:56:00,